Regional Weather Roundup
Issued by NWS Upton, NY

Current Version | Previous Version | Graphics & Text | Print | Product List | Glossary Off
Versions: 1 2 3 4 5 6 7 8 9 10 11 12 13 14 15 16 17 18 19 20 21 22 23 24 25 26 27

000
ASUS41 KOKX 210305
RWROKX

Regional Weather Roundup
National Weather Service New York NY
1100 PM EDT FRI APR 20 2018

Note: "FAIR" indicates few or no clouds below 12,000 feet with no
significant weather and/or obstructions to visibility.

NYZ071-072-176-178-NJZ106-104-210400-
New York City Metro Area

CITY           SKY/WX    TMP DP  RH WIND       PRES   REMARKS
Central Park   FAIR      42  23  46 CALM      30.38R
Bronx Bot Gard   N/A     39  23  52 NW6       30.37S WCI  35
Bronx Lehman C   N/A     41  25  52 NW7         N/A
LaGuardia Arpt FAIR      43  24  47 N8        30.36R
Queens College   N/A     41  25  52 N12         N/A
Kennedy Intl   FAIR      42  24  49 N17       30.37R
Breezy Point     N/A     41 N/A N/A N13G18      N/A
Brooklyn Coll    N/A     43  25  49 NW14        N/A
Staten Island    N/A     41  25  52 N12         N/A
Newark/Liberty FAIR      42  23  46 N16       30.37R
Teterboro      FAIR      41  24  51 NW10      30.36R
$$

NYZ177-179-078>081-210400-
Long Island New York

CITY           SKY/WX    TMP DP  RH WIND       PRES   REMARKS
Jones Beach      N/A     41 N/A N/A N9          N/A
Wantagh          N/A     41  25  52 NW10        N/A
Hempstead        N/A     41  27  56 NW8       30.38R
Matinecock Pt    N/A     43 N/A N/A N12         N/A
Farmingdale    FAIR      41  24  51 N8        30.34R
MacArthur/ISP  FAIR      41  25  53 N16       30.32S
Stony Brook      N/A     41  27  56 N9          N/A
Shirley        FAIR      41  27  57 N14G20    30.32S
Mt Sinai Harb    N/A    N/A N/A N/A N9          N/A
Westhampton    FAIR      41  25  53 NW15      30.32R
East Hampton   FAIR      40  26  57 NW10      30.30R WCI  34
Southold         N/A     41  28  60 N16         N/A
Montauk          N/A     44  31  60 NW10      30.30R
$$

NYZ052-065-067-210400-
Hudson Valley

CITY           SKY/WX    TMP DP  RH WIND       PRES   REMARKS
White Plains   FAIR      37  23  56 NW7       30.32S WCI  32
Larchmont Harb   N/A     41 N/A N/A NW6         N/A
Croton On Huds   N/A     39 N/A N/A NW2         N/A
Somers           N/A     36  25  64 NW3         N/A
Brewster         N/A     36  25  64 N8          N/A  WCI  29
Newburgh       CLEAR     36  25  64 VRB6      30.35S WCI  31
Montgomery     FAIR      34  25  69 W3        30.34S
Otisville        N/A     36  25  64 NW3         N/A
Warwick          N/A     34  25  69 W3          N/A
Suffern          N/A     37  25  60 W2          N/A
Poughkeepsie   FAIR      35  24  64 CALM      30.35R
Albany         FAIR      34  24  67 W9        30.34S WCI  27
$$

NJZ001-105-106-008-010-013-015-019>022-104-210400-
New Jersey

CITY           SKY/WX    TMP DP  RH WIND       PRES   REMARKS
Newark/Liberty FAIR      42  23  46 N16       30.37R
Teterboro      FAIR      41  24  51 NW10      30.36R
Caldwell       FAIR      40  22  48 VRB6      30.38R
Somerville     FAIR      41  24  51 N5        30.36S
Linden         FAIR      42  23  47 N5G17     30.39R
Perth Amboy      N/A     41 N/A N/A N14G20      N/A
Sussex         FAIR      34  23  64 CALM      30.37R
Andover          N/A     35  23  61 CALM      30.37R
Trenton        FAIR      42  23  46 N13G21    30.37R
Millville      FAIR      44  24  45 N10       30.37R
Atlantic City  FAIR      42  25  50 NW9       30.36R
Wrightstown    FAIR      40  25  56 N12       30.35  WCI  33
Toms River     FAIR      38  24  57 N7        30.37R WCI  33
Belmar         FAIR      41  24  51 NW13      30.37R
$$

PAZ047>061-062-071-210400-
Eastern Pennsylvania

CITY           SKY/WX    TMP DP  RH WIND       PRES   REMARKS
Philadelphia   FAIR      44  23  43 N15       30.39R
Allentown      FAIR      37  24  59 N8        30.39R WCI  31
Scranton       FAIR      34  24  67 CALM      30.37R
$$

CTZ002-004>006-009-010-012-RIZ004-006-007-MAZ004-011-015-210400-
Southern New England

 In CT

CITY           SKY/WX    TMP DP  RH WIND       PRES   REMARKS
Bradley Intl   MOCLDY    38  25  59 NW8       30.31S WCI  32
Hartford       MOCLDY    42  25  50 NW10      30.31S
Danbury        FAIR      38  23  55 N8        30.34R WCI  32
Wtrbury/Oxford FAIR      36  24  62 N10       30.32R WCI  28
Norwalk Harbor   N/A     39 N/A N/A N7          N/A  WCI  34
Bridgeport     FAIR      41  24  51 NW9       30.33S
Meriden        FAIR      40  25  55 NW14      30.32S WCI  32
New Haven      FAIR      42  24  49 NW8       30.32R
Chester        FAIR      39  25  56 NW12G20   30.29S WCI  32
Groton         FAIR      42  26  53 NW14G20   30.28R
Willimantic    CLOUDY    43  26  51 NW12      30.29R

 In RI

CITY           SKY/WX    TMP DP  RH WIND       PRES   REMARKS
Providence     FAIR      44  25  47 N10       30.27R
Block Island   FAIR      42  29  59 NW13G21   30.27R
Westerly       FAIR      43  27  53 NW8       30.28R

In MA

CITY           SKY/WX    TMP DP  RH WIND       PRES   REMARKS
Boston         FAIR      42  27  55 NW12      30.25S
Worcester      FAIR      36  24  62 W15       30.24S WCI  27
Westfield      FAIR      39  25  57 NW6       30.30  WCI  35
Provincetown   FAIR      42  32  67 NW20G25   30.23R
Nantucket      CLOUDY    44  35  70 N15       30.22R
$$

ANZ330-335-338-340-345-350-353-355-210400-
Coastal Marine Observations


STATION/POSITION TIME  SKY/WX   TEMP    WIND        PRES    VSBY  WAVE
                                AIR SEA DIR/SP/G                  HT/PER
                 (UTC)          (F)     (DEG/KT/KT) (MB)    (MI)  (FT/S)
NY Harb Entrance 0250            43 44  340/ 19/ 21 1027.7          3/ 4
20 S Fire Island 0250            44 42  340/ 19/ 21 1026.5          3/ 5
23 SSW Montauk P 0250            43 42  310/ 17/ 21 1025.4          3/ 4
15 E Barnegat Li 0230               44                N/A           4/ 5
Hudson Canyon    0250            44 44  340/ 21/ 23 1025.6          4/ 5
Kings Point      0248            42 45   30/ 12/ 18 1028.8
Execution Rocks  NOT AVBL
Western LI Sound NOT AVBL
Central LI Sound 0230            43     330/ 14/ 19   N/A           2
Robbins Reef     0248            42     330/ 12/ 17 1028.8
$$


>>>>>>>>>>>>>>>>>>>>>>>>>>>> KEY <<<<<<<<<<<<<<<<<<<<<<<<<<<
>                                                          <
>     SKY/WX - Sky Condition/Present Weather               <
>     TMP    - Temperature in Fahrenheit                   <
>     DP     - Dew Point in Fahrenheit                     <
>     RH     - Relative Humidity in Percent                <
>     WIND   - Direction (from) and Speed in MPH           <
>     PRES   - Mean Sea Level Pressure (inches of Hg)      <
>     WCI    - Wind Chill Index                            <
>     VSB    - Visibility in Miles                         <
>     HX     - Heat Index                                  <
>     TC     - Temperature in Celsius                      <
>     VRB    - Varibale Wind Direction                     <
>                                                          <
>>>>>>>>>>>>>>>>>>>>>>>>>>>> KEY <<<<<<<<<<<<<<<<<<<<<<<<<<<




USA.gov is the U.S. government's official web portal to all federal, state and local government web resources and services.